World > North America > United States > North Carolina

Skyland, North Carolina Regional Weather

Lat: 35.48N, Lon: 82.52W
Wx Zone: NCZ053Web Search

Helpful Tip: You can add this page to Bookmarks by pressing the Ctrl key & d key at the same time. Mac users press command & d.

Feedback


°F Click to change Skyland hourly weather to Imperial units.Click to change Skyland hourly weather to Metric units. °C
Skyland Weather Map
UTC Time: 5/8/2021, 00:40
Your Time:

Skyland, NC Regional Weather

Expires:202105080100;;759499
ASUS42 KRAH 080010
RWRRAH
NORTH CAROLINA WEATHER ROUNDUP
NATIONAL WEATHER SERVICE RALEIGH NC
800 PM EDT FRI MAY 07 2021

NOTE: "FAIR" INDICATES FEW OR NO CLOUDS BELOW 12,000 FEET WITH NO
SIGNIFICANT WEATHER AND/OR OBSTRUCTIONS TO VISIBILITY.


NCZ001-053-055-056-065-067-080100-
WESTERN NORTH CAROLINA
  
CITY           SKY/WX    TMP DP  RH WIND       PRES   REMARKS
ASHEVILLE      CLEAR     56  30  37 NW10      30.02R                  
JEFFERSON      CLEAR     49  27  42 W12G23    29.97S                  
MORGANTON      CLEAR     61  30  31 NW10G18   30.01S                  
HICKORY        CLEAR     59  29  31 N10G20    29.96R                  
WILKESBORO     NOT AVBL                                               
RUTHERFORDTON  CLEAR     59  30  33 NW10G18   30.00R                  
MOUNT AIRY     NOT AVBL                                               
BOONE            N/A     49  26  40 NW17G31   29.98R                  
$$
 

SKY/WX - Weather  TMP - Temperature  DP - Dew Point  RH - Relative Humidity
WIND - Wind Direction/Speed PRES - Barometric Pressure VSB - Visibility
WCI - Wind Chill Index E13G22 Wind - East Wind 13 mph/Gusts of 22 mph